{"data":{"norad_id":66913,"intl_designator":"2025-284A","name":"2025-284A","alt_names":[],"object_type":"PAYLOAD","status":"ACTIVE","operator":null,"country":"PRC","launch_date":"2025-12-05","launch_site_code":"JSC","launch_vehicle":null,"mission":null,"orbit_class":"UNKNOWN","rcs_meters":null,"size_class":null,"mass_kg":null,"dimensions":null,"purposes":[],"wikipedia_slug":null,"has_3d_model":false,"image_url":null,"decayed_at":null,"tle_current":{"epoch":"2026-05-25T04:43:40.403424Z","epoch_age_seconds":51897,"freshness":"FRESH","line1":"1 66913U 25284A   26145.19699541  .00000131  00000+0  86617-4 0  9994","line2":"2 66913  80.4047 313.3366 0010564 302.1331  57.8804 13.97336240 24279","mean_motion":13.9733624,"eccentricity":0.0010564,"inclination_deg":80.4047,"raan_deg":313.3366,"arg_perigee_deg":302.1331,"mean_anomaly_deg":57.8804,"bstar":8.6617e-5,"rev_number":2427,"period_min":103.05322074807,"perigee_km":895.34209628908,"apogee_km":910.72575421996,"semimajor_km":7281.1709252545,"source":"CELESTRAK","updated_at":"2026-05-25T13:38:06.592665Z"}}}